(188062) = 2001 WT8

Discovered at Socorro on 2001-11-17 by LINEAR.

Orbit

Orbit type: Main Belt

Note: WebGL enabled browser required.

epoch2024-03-31.0
epoch JD2460400.5
perihelion date2022-01-17.84734
perihelion JD2459597.34735
argument of perihelion (°)271.07753
ascending node (°)98.30842
inclination (°)4.06339
eccentricity0.1937492
perihelion distance (AU)2.0701665
Tisserand w.r.t. Jupiter3.4
ΔV w.r.t. Earth (km/sec)9.1
semimajor axis (AU)2.5676458
mean anomaly (°)192.39753
mean daily motion (°/day)0.23955290
aphelion distance (AU)3.065
period (years)4.11
P-vector [x]0.98412529
P-vector [y]0.17747487
P-vector [z]-0.00027479
Q-vector [x]-0.16303711
Q-vector [y]0.90467521
Q-vector [z]0.39367710
absolute magnitude16.76
phase slope0.15
uncertainty0
referenceE2024-GL3
observations used443
oppositions16
arc length (days)8206
first opposition used2001
last opposition used2024
residual rms (arc-secs)0.76
perturbers coarse indicatorM-v
perturbers precise indicator003Ek
first observation date used2001-10-24.0
last observation date used2024-04-12.0
computer nameMPCLINUX
JD of orbit computation2456671.039273
perihelion JD uncertainty (days)6.0337E-05
argument of perihelion uncertainty (°)1.3086E-04
ascending node uncertainty (°)1.2978E-04
inclination uncertainty (°)5.7868E-06
eccentricity uncertainty 1.2371E-07
perihelion distance uncertainty (AU)3.3485E-07
Minimum Orbit Intersection Distances (in AU)
for orbit epoch: 2460400.5, reference: E2024-GL3
Mercury1.71346
Venus1.34435
Earth1.07441
Mars0.6654
Jupiter2.39481
Saturn6.36145
Uranus15.4116
Neptune27.4999

Observations

447 total observations over interval: 2001 10 24.41302 – 2024 03 19.513946
These data are available for download (format description).

Date (UT) J2000 RA J2000 Dec Magn Location Ref
2001 10 24.41302 04 28 57.24 +16 46 19.3 19.0   704 – Lincoln Laboratory ETS, New Mexico MPS 44942
2001 10 24.42941 04 28 56.75 +16 46 18.8 19.8   704 – Lincoln Laboratory ETS, New Mexico MPS 44942
2001 10 24.44579 04 28 56.28 +16 46 18.2 19.6   704 – Lincoln Laboratory ETS, New Mexico MPS 44942
2001 10 24.47871 04 28 55.36 +16 46 16.9 19.5   704 – Lincoln Laboratory ETS, New Mexico MPS 44942
2001 11 15.62106 04 12 13.41 +16 24 52.7 20.1   608 – Haleakala-AMOS MPS 44942
2001 11 15.63219 04 12 12.74 +16 24 52.0 20.5   608 – Haleakala-AMOS MPS 44942
2001 11 15.64256 04 12 12.14 +16 24 51.2 20.5   608 – Haleakala-AMOS MPS 44942
2001 11 17.29141 04 10 34.03 +16 23 14.2 19.2   704 – Lincoln Laboratory ETS, New Mexico MPS 42213
2001 11 17.30600 04 10 33.16 +16 23 13.3 19.8   704 – Lincoln Laboratory ETS, New Mexico MPS 42213
2001 11 17.32140 04 10 32.14 +16 23 12.2 19.6   704 – Lincoln Laboratory ETS, New Mexico MPS 42213
2001 11 17.33606 04 10 31.28 +16 23 11.2 20.2   704 – Lincoln Laboratory ETS, New Mexico MPS 42213
2001 11 17.35097 04 10 30.31 +16 23 11.2 19.7   704 – Lincoln Laboratory ETS, New Mexico MPS 42213
2001 11 18.28919 04 09 33.77 +16 22 17.4 19.6   704 – Lincoln Laboratory ETS, New Mexico MPS 42213
2001 11 18.30420 04 09 32.74 +16 22 17.0 19.8   704 – Lincoln Laboratory ETS, New Mexico MPS 42213
2001 11 18.31919 04 09 31.99 +16 22 17.4 19.9   704 – Lincoln Laboratory ETS, New Mexico MPS 42213
2001 11 18.33420 04 09 30.89 +16 22 14.6 19.8   704 – Lincoln Laboratory ETS, New Mexico MPS 42213
2001 11 18.34921 04 09 29.96 +16 22 14.4 19.6   704 – Lincoln Laboratory ETS, New Mexico MPS 42213
2001 11 20.29439 04 07 31.33 +16 20 29.6 19.7   704 – Lincoln Laboratory ETS, New Mexico MPS 44942
2001 11 20.30928 04 07 30.55 +16 20 32.2 20.6   704 – Lincoln Laboratory ETS, New Mexico MPS 44942
2001 11 20.32396 04 07 29.47 +16 20 28.6 19.6   704 – Lincoln Laboratory ETS, New Mexico MPS 44942
2001 11 20.33863 04 07 28.56 +16 20 27.8 19.5   704 – Lincoln Laboratory ETS, New Mexico MPS 44942
2001 11 20.35331 04 07 27.60 +16 20 27.2 19.7   704 – Lincoln Laboratory ETS, New Mexico MPS 44942
2001 12 11.22574 03 47 36.77 +16 13 09.6 19.7   704 – Lincoln Laboratory ETS, New Mexico MPS 44942
2001 12 11.24158 03 47 36.05 +16 13 10.6 20.0   704 – Lincoln Laboratory ETS, New Mexico MPS 44942
2001 12 11.25724 03 47 35.31 +16 13 10.2 19.5   704 – Lincoln Laboratory ETS, New Mexico MPS 44942
2001 12 11.27369 03 47 34.50 +16 13 12.6 20.1   704 – Lincoln Laboratory ETS, New Mexico MPS 44942
2001 12 11.28943 03 47 33.74 +16 13 11.7 19.7   704 – Lincoln Laboratory ETS, New Mexico MPS 44942
2001 12 13.16297 03 46 09.02 +16 14 03.7 19.8   644 – Palomar Mountain/NEAT MPS 46720
2001 12 13.23961 03 46 05.49 +16 14 06.4 19.6   644 – Palomar Mountain/NEAT MPS 46720
2001 12 13.30934 03 46 02.24 +16 14 09.0 19.7   644 – Palomar Mountain/NEAT MPS 46720
2001 12 14.15467 03 45 26.21 +16 14 38.9 19.6   704 – Lincoln Laboratory ETS, New Mexico MPS 46720
2001 12 14.20038 03 45 24.16 +16 14 40.3 20.0   704 – Lincoln Laboratory ETS, New Mexico MPS 46720
2001 12 14.21548 03 45 23.47 +16 14 40.9 20.5   704 – Lincoln Laboratory ETS, New Mexico MPS 46720
2001 12 19.22016 03 42 13.36 +16 19 03.0 19.1   704 – Lincoln Laboratory ETS, New Mexico MPS 44942
2001 12 19.23531 03 42 12.82 +16 19 03.8 19.4   704 – Lincoln Laboratory ETS, New Mexico MPS 44942
2001 12 19.24518 03 42 12.47 +16 19 04.1 20.2   704 – Lincoln Laboratory ETS, New Mexico MPS 44942
2001 12 19.25046 03 42 12.25 +16 19 04.8 19.7   704 – Lincoln Laboratory ETS, New Mexico MPS 44942
2001 12 19.26029 03 42 11.91 +16 19 04.7 20.0   704 – Lincoln Laboratory ETS, New Mexico MPS 44942
2001 12 19.26559 03 42 11.68 +16 19 06.2 19.3   704 – Lincoln Laboratory ETS, New Mexico MPS 44942
2001 12 19.27636 03 42 11.33 +16 19 06.8 19.8   704 – Lincoln Laboratory ETS, New Mexico MPS 44942
2001 12 19.28072 03 42 11.21 +16 19 07.7 19.6   704 – Lincoln Laboratory ETS, New Mexico MPS 44942
2003 03 31.179990 11 06 03.118 +11 51 08.23 21.40 V 645 – Apache Point-Sloan Digital Sky Survey MPS 150648
2003 03 31.183462 11 06 02.980 +11 51 08.73 22.47   645 – Apache Point-Sloan Digital Sky Survey MPS 150648
2005 10 10.39073 03 05 12.12 +10 31 36.3 19.5 V 703 – Catalina Sky Survey MPS 150648
2005 10 10.39837 03 05 11.90 +10 31 34.6 19.1 V 703 – Catalina Sky Survey MPS 150648
2005 10 10.40604 03 05 11.58 +10 31 33.4 19.3 V 703 – Catalina Sky Survey MPS 150648
2005 10 10.41374 03 05 11.36 +10 31 31.2 19.1 V 703 – Catalina Sky Survey MPS 150648
2005 10 22.41622 02 56 59.71 +09 55 40.4 18.8 V 703 – Catalina Sky Survey MPS 149352
2005 10 22.42343 02 56 59.35 +09 55 39.3 19.0 V 703 – Catalina Sky Survey MPS 149352
2005 10 22.43064 02 56 58.99 +09 55 38.2 18.9 V 703 – Catalina Sky Survey MPS 149352
2005 10 22.43791 02 56 58.63 +09 55 37.0 18.6 V 703 – Catalina Sky Survey MPS 149352
2005 10 27.30554 02 52 47.93 +09 40 43.9 18.8 R 699 – Lowell Observatory-LONEOS MPS 150648
2005 10 27.30645 02 52 47.76 +09 40 44.3 18.7 R 699 – Lowell Observatory-LONEOS MPS 150648
2005 10 27.32945 02 52 46.44 +09 40 41.5   699 – Lowell Observatory-LONEOS MPS 150648
2005 10 27.33036 02 52 46.41 +09 40 39.4   699 – Lowell Observatory-LONEOS MPS 150648
2005 10 27.35336 02 52 45.10 +09 40 36.5   699 – Lowell Observatory-LONEOS MPS 150648
2005 10 27.35428 02 52 45.05 +09 40 35.5   699 – Lowell Observatory-LONEOS MPS 150648
2005 10 27.37727 02 52 43.90 +09 40 32.1   699 – Lowell Observatory-LONEOS MPS 150648
2005 10 27.37819 02 52 43.71 +09 40 31.4   699 – Lowell Observatory-LONEOS MPS 150648
2005 10 28.24768 02 51 57.09 +09 37 55.9 19.1 V 703 – Catalina Sky Survey MPS 149352
2005 10 28.25300 02 51 56.77 +09 37 56.1 18.4 V 703 – Catalina Sky Survey MPS 149352
2005 10 28.25838 02 51 56.48 +09 37 54.6 19.0 V 703 – Catalina Sky Survey MPS 149352
2005 10 28.26370 02 51 56.19 +09 37 53.4 18.6 V 703 – Catalina Sky Survey MPS 149352
2005 10 30.24789 02 50 07.36 +09 32 05.3 19.1 V 703 – Catalina Sky Survey MPS 150648
2005 10 30.25248 02 50 07.15 +09 32 05.1 18.7 V 703 – Catalina Sky Survey MPS 150648
2005 10 30.25707 02 50 06.90 +09 32 04.1 18.6 V 703 – Catalina Sky Survey MPS 150648
2005 10 30.26164 02 50 06.64 +09 32 02.8 18.8 V 703 – Catalina Sky Survey MPS 150648
2005 11 05.31403 02 44 27.09 +09 15 54.9 19.0 V 703 – Catalina Sky Survey MPS 150648
2005 11 05.31887 02 44 26.80 +09 15 53.8 18.4 V 703 – Catalina Sky Survey MPS 150648
2005 11 05.32373 02 44 26.41 +09 15 54.7 17.6 V 703 – Catalina Sky Survey MPS 150648
2005 11 05.32855 02 44 26.23 +09 15 52.6 18.7 V 703 – Catalina Sky Survey MPS 150648
2005 11 10.28914 02 39 51.30 +09 05 05.8 18.8 V 703 – Catalina Sky Survey MPS 149352
2005 11 10.29559 02 39 50.83 +09 05 03.5 19.1 V 703 – Catalina Sky Survey MPS 149352
2005 11 10.30203 02 39 50.50 +09 05 02.9 18.5 V 703 – Catalina Sky Survey MPS 149352
2005 11 10.30846 02 39 50.07 +09 05 02.9 18.8 V 703 – Catalina Sky Survey MPS 149352
2005 11 20.26494 02 31 31.99 +08 52 35.0 19.0 R 699 – Lowell Observatory-LONEOS MPS 150648
2005 11 20.29324 02 31 30.58 +08 52 33.4   699 – Lowell Observatory-LONEOS MPS 150648
2005 11 20.32153 02 31 29.34 +08 52 33.4   699 – Lowell Observatory-LONEOS MPS 150648
2005 11 20.34988 02 31 28.00 +08 52 30.7   699 – Lowell Observatory-LONEOS MPS 150648
2005 11 30.19276 02 25 22.34 +08 54 57.1 19.4   704 – Lincoln Laboratory ETS, New Mexico MPS 151931
2005 11 30.21812 02 25 21.53 +08 54 58.2 19.8   704 – Lincoln Laboratory ETS, New Mexico MPS 151931
2005 11 30.23070 02 25 21.12 +08 55 00.0 19.6   704 – Lincoln Laboratory ETS, New Mexico MPS 151931
2005 12 03.18875 02 24 03.23 +08 58 50.5 19.7   704 – Lincoln Laboratory ETS, New Mexico MPS 155225
2005 12 03.20202 02 24 02.71 +08 58 51.8 19.8   704 – Lincoln Laboratory ETS, New Mexico MPS 155225
2005 12 03.21495 02 24 02.32 +08 58 53.4 19.9   704 – Lincoln Laboratory ETS, New Mexico MPS 155225
2005 12 03.24080 02 24 01.54 +08 58 54.9 19.4   704 – Lincoln Laboratory ETS, New Mexico MPS 155225
2006 01 22.07683 02 41 17.66 +13 00 35.7 20.7 V G96 – Mt. Lemmon Survey MPS 160292
2006 01 22.08343 02 41 18.06 +13 00 37.9 20.9 V G96 – Mt. Lemmon Survey MPS 160292
2006 01 22.09003 02 41 18.42 +13 00 40.7 20.9 V G96 – Mt. Lemmon Survey MPS 160292
